This demonstration page uses our WeatherBlox Daily Observations layout. Learn more.

Left ArrowRight Arrow

34.02893, -84.19858

Hourly Observations for February 11, 2021

Temp ( °F °C ) Dew Point ( °F °C ) Humidity (%) Winds ( mph kmh ) Pressure ( in mb ) Visibility ( mi km ) Precip ( " mm )
12:53 am 00:53 Clear 53 11.7 52 11.1 96 96 Calm 30.06 1018 7 11 0.00 0.00
1:53 am 01:53 Clear with Mist and Fog 51 10.6 50 10 96 96 Calm 30.04 1017 5 8 0.00 0.00
2:06 am 02:06 Clear with Mist and Fog 50 10 49 9.4 96 96 Calm 30.06 1018 2 3 0.00 0.00
2:17 am 02:17 Clear with Mist and Fog 49 9.4 49 9.4 100 100 Calm 30.06 1018 3 5 0.00 0.00
2:29 am 02:29 Mostly Clear with Mist and Fog 49 9.4 49 9.4 100 100 Calm 30.05 1018 2 3 0.00 0.00
2:46 am 02:46 Mostly Clear with Mist and Fog 51 10.6 50 10 96 96 Calm 30.05 1018 3 5 0.00 0.00
2:53 am 02:53 Mostly Clear with Mist and Fog 50 10 50 10 100 100 Calm 30.02 1017 6 10 0.00 0.00
3:19 am 03:19 Mostly Cloudy with Mist and Fog 52 11.1 52 11.1 100 100 Calm 30.05 1018 6 10 0.00 0.00
3:53 am 03:53 Cloudy with Mist and Fog 51 10.6 51 10.6 100 100 Calm 30.02 1017 3 5 0.00 0.00
4:11 am 04:11 Cloudy with Mist and Fog 52 11.1 51 10.6 97 97 Calm 30.04 1017 5 8 0.00 0.00
4:20 am 04:20 Cloudy with Mist and Fog 52 11.1 51 10.6 97 97 Calm 30.04 1017 5 8 0.00 0.00
4:43 am 04:43 Cloudy 53 11.7 52 11.1 96 96 Calm 30.03 1017 7 11 0.00 0.00
4:53 am 04:53 Cloudy with Mist and Fog 53 11.7 52 11.1 96 96 Calm 30.02 1017 6 10 0.00 0.00
5:03 am 05:03 Cloudy with Mist and Fog 53 11.7 52 11.1 96 96 Calm 30.03 1017 2 2 0.00 0.00
5:21 am 05:21 Mostly Cloudy with Fog 53 11.7 53 11.7 100 100 Calm 30.03 1017 1 1 0.00 0.00
5:53 am 05:53 Mostly Cloudy with Fog 52 11.1 52 11.1 100 100 Calm 30.03 1017 0 0 0.00 0.00
6:53 am 06:53 Mostly Cloudy with Fog 53 11.7 53 11.7 100 100 Calm 30.03 1017 0 0 0.00 0.00
7:53 am 07:53 Mostly Cloudy with Fog 54 12.2 54 12.2 100 100 Calm 30.03 1017 0 0 0.00 0.00
8:53 am 08:53 Mostly Cloudy with Fog 55 12.8 55 12.8 100 100 Calm 30.04 1017 1 2 0.00 0.00
9:53 am 09:53 Mostly Cloudy with Mist and Fog 55 12.8 55 12.8 100 100 SSE 5 7 30.04 1017 1 2 0.00 0.00
10:05 am 10:05 Cloudy with Fog 55 12.8 55 12.8 100 100 S 3 6 30.05 1018 1 1 0.00 0.00
10:39 am 10:39 Cloudy with Light Rain 56 13.3 56 13.3 100 100 SSW 6 9 30.07 1018 1 1 0.02 0.51
10:53 am 10:53 Cloudy with Rain 56 13.3 56 13.3 100 100 SSW 8 13 30.07 1018 1 1 0.06 1.52
11:15 am 11:15 Cloudy with Rain 56 13.3 56 13.3 100 100 Calm 30.06 1018 2 2 0.20 5.08
11:53 am 11:53 Cloudy with Light Rain 57 13.9 57 13.9 100 100 Calm 30.03 1017 2 3 0.33 8.38
11:57 am 11:57 Cloudy with Light Rain 57 13.9 57 13.9 100 100 Calm 30.03 1017 3 5 0.00 0.00
12:44 pm 12:44 Cloudy with Light Rain 58 14.4 58 14.4 100 100 S 5 7 30.01 1016 3 4 0.05 1.27
12:47 pm 12:47 Cloudy with Light Rain 57 14 57 14 100 100 SSW 6 9 30.01 1016 3 5 0.05 1.27
12:53 pm 12:53 Cloudy with Rain 58 14.4 58 14.4 100 100 SSW 5 7 30.00 1016 3 5 0.06 1.52
1:23 pm 13:23 Cloudy with Light Rain 59 15 59 15 100 100 S 6 9 29.97 1015 10 16 0.01 0.25
1:33 pm 13:33 Cloudy 60 15.6 59 15 96 96 S 6 9 29.96 1015 10 16 0.01 0.25
1:53 pm 13:53 Cloudy 61 16.1 60 15.6 97 97 SW 6 9 29.98 1015 10 16 0.01 0.25
2:53 pm 14:53 Cloudy 60 15.6 60 15.6 100 100 SW 5 7 29.97 1015 10 16 0.01 0.25
3:53 pm 15:53 Cloudy 60 15.6 59 15 96 96 W 6 9 29.98 1015 10 16 0.01 0.25
4:53 pm 16:53 Cloudy with Light Rain 60 15.6 59 15 96 96 SSW 5 7 29.97 1015 10 16 0.00 0.00
5:09 pm 17:09 Mostly Cloudy 60 15.6 59 15 96 96 SSW 5 7 29.97 1015 10 16 0.00 0.00
5:53 pm 17:53 Mostly Cloudy 59 15 59 15 100 100 Calm 29.97 1015 8 13 0.00 0.00
6:53 pm 18:53 Mostly Cloudy with Mist and Fog 58 14.4 57 13.9 97 97 SW 5 7 29.98 1015 5 8 0.00 0.00
7:53 pm 19:53 Cloudy with Light Rain 58 14.4 58 14.4 100 100 Calm 29.99 1016 6 10 0.02 0.51
8:37 pm 20:37 Cloudy with Rain 58 14.4 58 14.4 100 100 S 3 6 30.00 1016 3 4 0.07 1.78
8:46 pm 20:46 Cloudy with Light Rain 58 14.4 58 14.4 100 100 SSW 5 7 30.00 1016 4 6 0.08 2.03
8:53 pm 20:53 Cloudy with Light Rain 58 14.4 58 14.4 100 100 SSW 3 6 30.00 1016 5 8 0.08 2.03
9:53 pm 21:53 Cloudy with Light Rain 58 14.4 58 14.4 100 100 SSE 6 9 29.98 1015 7 11 0.05 1.27
10:53 pm 22:53 Mostly Cloudy 58 14.4 58 14.4 100 100 SW 8 13 29.96 1015 10 16 0.03 0.76
11:39 pm 23:39 Partly Cloudy 58 14.4 57 13.9 97 97 NNW 7 11 29.95 1014 9 14 0.00 0.00
11:53 pm 23:53 Mostly Cloudy 58 14.4 58 14.4 100 100 NW 5 7 29.96 1015 9 14 0.00 0.00

Powered by AerisWeather